User: anonymous   Login
Location: Caltech
(34.1382°N, 118.1253°W)
Time: 06:52:08
(UTC-07:00)
Language:

Cosmos 2084 - Orbit

View from above orbital plane
View from above orbital plane
View from above satellite
View from above satellite

Ground track
Ground track

The orbit data is extracted from the following two-line orbital elements,

1 20663U 90055A   14305.09715867  .00001750  00000-0  19799-3 0  2693
2 20663 062.7969 185.1726 0046313 329.8556 029.9872 14.89509328316818
Epoch (UTC): 01 November 2014 02:19:54
Eccentricity: 0.0046313
inclination: 62.7969°
perigee height: 567 km
apogee height: 632 km
right ascension of ascending node: 185.1726°
argument of perigee: 329.8556°
revolutions per day: 14.89509328
mean anomaly at epoch: 29.9872°
orbit number at epoch: 31681

The dashed part of the orbit path shows where the satellite is in the earth's shadow,  

DLR